Location: Martley
(52.2333°N, 2.3667°W)
Time: 17:33:05
(UTC+00:00)

IRIDIUM 114 - Pass Details

Date: 11 December 2019
Orbit: 776 x 779 km, 86.4° (Epoch: 28 January)

Event Time Altitude Azimuth Distance (km) Brightness Sun altitude
Rises 07:00:05 0° 352° (N) 3,277 7.2 -9.7°
Reaches altitude 10° 07:02:28 10° 349° (N) 2,344 6.5 -9.4°
Maximum altitude 07:07:37 59° 271° (W) 898 4.4 -8.7°
Drops below altitude 10° 07:12:43 10° 193° (SSW) 2,325 7.0 -8.0°
Sets 07:15:05 0° 190° (S) 3,248 7.8 -7.6°
